| time (UTC) | temp F | wind direction | speed MPH | gust MPH | rain 1hr in | rain 24hr in | rain mn in | humidity % | barometer mb |
| 20260901014559 | 57 | 0 | 0.0 | 0.0 | 0.00 | 0.03 | 0.00 | 84 | 1018.7 |
| 20260901014028 | 57 | 0 | 0.0 | 0.0 | 0.00 | 0.03 | 0.00 | 84 | 1018.7 |
| 20260901013525 | 57 | 0 | 0.0 | 0.0 | 0.00 | 0.03 | 0.00 | 84 | 1018.6 |
| 20260901013049 | 57 | 0 | 0.0 | 0.0 | 0.00 | 0.03 | 0.00 | 83 | 1018.6 |
| 20260901012527 | 57 | 0 | 0.0 | 0.0 | 0.00 | 0.03 | 0.00 | 83 | 1018.6 |
| 20260901012028 | 58 | 0 | 0.0 | 0.0 | 0.00 | 0.03 | 0.00 | 83 | 1018.6 |
| 20260901011544 | 58 | 0 | 0.0 | 0.0 | 0.00 | 0.03 | 0.00 | 82 | 1018.6 |
| 20260901011026 | 58 | 0 | 0.0 | 0.0 | 0.00 | 0.03 | 0.00 | 82 | 1018.5 |
| 20260901010530 | 58 | 0 | 0.0 | 0.0 | 0.00 | 0.03 | 0.00 | 82 | 1018.4 |
| 20260901010045 | 58 | 0 | 0.0 | 0.0 | 0.00 | 0.03 | 0.00 | 82 | 1018.5 |
| 20260901005525 | 58 | 0 | 0.0 | 0.0 | 0.00 | 0.03 | 0.00 | 81 | 1018.5 |
| 20260901005025 | 58 | 0 | 0.0 | 0.0 | 0.00 | 0.03 | 0.00 | 81 | 1018.6 |
| 20260901004546 | 58 | 0 | 0.0 | 0.0 | 0.00 | 0.03 | 0.00 | 81 | 1018.5 |
| 20260901004027 | 58 | 0 | 0.0 | 0.0 | 0.00 | 0.03 | 0.00 | 79 | 1018.5 |
| 20260901003527 | 58 | 0 | 0.0 | 0.0 | 0.00 | 0.03 | 0.00 | 79 | 1018.4 |
| 20260901003100 | 59 | 0 | 0.0 | 0.0 | 0.00 | 0.03 | 0.00 | 78 | 1018.5 |
| 20260901002527 | 59 | 0 | 0.0 | 0.0 | 0.00 | 0.03 | 0.00 | 78 | 1018.6 |
| 20260901002030 | 59 | 0 | 0.0 | 0.0 | 0.00 | 0.03 | 0.00 | 77 | 1018.5 |
| 20260901001602 | 59 | 0 | 0.0 | 0.0 | 0.00 | 0.03 | 0.00 | 76 | 1018.5 |
| 20260901001028 | 60 | 0 | 0.0 | 0.0 | 0.00 | 0.03 | 0.00 | 76 | 1018.4 |
| 20260901000526 | 60 | 0 | 0.0 | 0.0 | 0.00 | 0.03 | 0.00 | 74 | 1018.4 |
| 20260901000045 | 60 | 0 | 0.0 | 0.0 | 0.00 | 0.03 | 0.00 | 74 | 1018.3 |
| 20260831235532 | 61 | 0 | 0.0 | 0.0 | 0.00 | 0.03 | 0.00 | 74 | 1018.2 |
| 20260831235028 | 61 | 0 | 0.0 | 0.0 | 0.00 | 0.03 | 0.00 | 73 | 1018.3 |
| 20260831234551 | 62 | 0 | 0.0 | 0.0 | 0.00 | 0.03 | 0.00 | 72 | 1018.2 |
| 20260831234029 | 62 | 0 | 0.0 | 0.0 | 0.00 | 0.03 | 0.00 | 71 | 1018.2 |
| 20260831233524 | 62 | 0 | 0.0 | 0.0 | 0.00 | 0.03 | 0.00 | 71 | 1018.2 |
| 20260831233050 | 63 | 0 | 0.0 | 0.0 | 0.00 | 0.03 | 0.00 | 70 | 1018.2 |
| 20260831232523 | 63 | 0 | 0.0 | 0.0 | 0.00 | 0.03 | 0.00 | 69 | 1018.3 |
| 20260831232025 | 64 | 0 | 0.0 | 0.0 | 0.00 | 0.03 | 0.00 | 68 | 1018.3 |
| 20260831231545 | 65 | 0 | 0.0 | 0.0 | 0.00 | 0.03 | 0.00 | 64 | 1018.3 |
| 20260831231026 | 65 | 0 | 0.0 | 0.0 | 0.00 | 0.03 | 0.00 | 61 | 1018.2 |
| 20260831230524 | 65 | 0 | 0.0 | 0.0 | 0.00 | 0.03 | 0.00 | 61 | 1018.1 |
| 20260831230046 | 66 | 0 | 0.0 | 0.0 | 0.00 | 0.03 | 0.00 | 61 | 1018.1 |
| 20260831225525 | 66 | 0 | 0.0 | 0.0 | 0.00 | 0.03 | 0.00 | 59 | 1018.1 |
| 20260831225027 | 67 | 0 | 0.0 | 0.0 | 0.00 | 0.03 | 0.00 | 60 | 1018.1 |
| 20260831224541 | 67 | 0 | 0.0 | 0.0 | 0.00 | 0.03 | 0.00 | 58 | 1018.1 |
| 20260831224024 | 67 | 0 | 0.0 | 0.0 | 0.00 | 0.03 | 0.00 | 58 | 1018.1 |
| 20260831223524 | 68 | 0 | 0.0 | 0.0 | 0.00 | 0.03 | 0.00 | 57 | 1018.2 |
| 20260831223044 | 68 | 0 | 0.0 | 0.0 | 0.00 | 0.03 | 0.00 | 56 | 1018.1 |
| 20260831222525 | 68 | 0 | 0.0 | 0.0 | 0.00 | 0.03 | 0.00 | 57 | 1018.1 |
| 20260831222031 | 69 | 0 | 0.0 | 0.0 | 0.00 | 0.03 | 0.00 | 57 | 1018.0 |
| 20260831221554 | 69 | 0 | 0.0 | 0.0 | 0.00 | 0.03 | 0.00 | 57 | 1017.9 |
| 20260831221025 | 69 | 0 | 0.0 | 0.0 | 0.00 | 0.03 | 0.00 | 56 | 1017.9 |
| 20260831220525 | 70 | 0 | 0.0 | 0.0 | 0.00 | 0.03 | 0.00 | 55 | 1017.9 |
| 20260831220050 | 70 | 0 | 0.0 | 0.0 | 0.00 | 0.03 | 0.00 | 55 | 1018.0 |
| 20260831215527 | 70 | 0 | 0.0 | 0.0 | 0.00 | 0.03 | 0.00 | 55 | 1018.0 |
| 20260831215025 | 70 | 0 | 0.0 | 0.0 | 0.00 | 0.03 | 0.00 | 53 | 1017.9 |
| 20260831214554 | 71 | 0 | 0.0 | 0.0 | 0.00 | 0.03 | 0.00 | 53 | 1018.0 |
| 20260831214025 | 71 | 0 | 0.0 | 0.0 | 0.00 | 0.03 | 0.00 | 52 | 1018.0 |
| 20260831213530 | 71 | 0 | 0.0 | 0.0 | 0.00 | 0.03 | 0.00 | 51 | 1018.1 |
| 20260831213050 | 72 | 0 | 0.0 | 0.0 | 0.00 | 0.03 | 0.00 | 52 | 1018.0 |
| 20260831212524 | 72 | 0 | 0.0 | 0.0 | 0.00 | 0.03 | 0.00 | 50 | 1018.1 |
| 20260831212024 | 72 | 0 | 0.0 | 1.0 | 0.00 | 0.03 | 0.00 | 50 | 1017.9 |
| 20260831211556 | 73 | 0 | 0.0 | 1.0 | 0.00 | 0.03 | 0.00 | 49 | 1018.0 |
| 20260831211023 | 74 | 0 | 0.0 | 1.0 | 0.00 | 0.03 | 0.00 | 48 | 1018.0 |
| 20260831210524 | 74 | 0 | 0.0 | 1.0 | 0.00 | 0.03 | 0.00 | 46 | 1018.1 |
| 20260831210048 | 75 | 0 | 0.0 | 0.0 | 0.00 | 0.03 | 0.00 | 46 | 1017.9 |
| 20260831205523 | 76 | 0 | 0.0 | 3.0 | 0.00 | 0.03 | 0.00 | 45 | 1018.0 |
| 20260831205030 | 76 | 0 | 0.0 | 3.0 | 0.00 | 0.03 | 0.00 | 43 | 1018.0 |
| 20260831204553 | 77 | 0 | 0.0 | 0.0 | 0.00 | 0.03 | 0.00 | 42 | 1017.9 |
| 20260831204024 | 79 | 0 | 0.0 | 0.0 | 0.00 | 0.03 | 0.00 | 39 | 1017.9 |
| 20260831203523 | 80 | 0 | 0.0 | 2.0 | 0.00 | 0.03 | 0.00 | 41 | 1018.0 |
| 20260831203057 | 81 | 0 | 0.0 | 2.0 | 0.00 | 0.03 | 0.00 | 42 | 1018.0 |
| 20260831202524 | 81 | 0 | 0.0 | 0.0 | 0.00 | 0.03 | 0.00 | 36 | 1017.9 |
| 20260831202030 | 81 | 0 | 0.0 | 0.0 | 0.00 | 0.03 | 0.00 | 34 | 1017.9 |
| 20260831201552 | 81 | 0 | 0.0 | 0.0 | 0.00 | 0.03 | 0.00 | 35 | 1017.9 |
| 20260831201029 | 81 | 0 | 0.0 | 0.0 | 0.00 | 0.03 | 0.00 | 39 | 1017.9 |
| 20260831200527 | 80 | 0 | 0.0 | 0.0 | 0.00 | 0.03 | 0.00 | 35 | 1017.9 |
| 20260831200042 | 80 | 0 | 0.0 | 0.0 | 0.00 | 0.03 | 0.00 | 39 | 1018.0 |
| 20260831195528 | 81 | 0 | 0.0 | 0.0 | 0.00 | 0.03 | 0.00 | 38 | 1018.1 |
| 20260831195028 | 81 | 0 | 0.0 | 0.0 | 0.00 | 0.03 | 0.00 | 40 | 1018.0 |
| 20260831194557 | 81 | 0 | 0.0 | 0.0 | 0.00 | 0.03 | 0.00 | 39 | 1018.1 |
| 20260831194029 | 80 | 0 | 0.0 | 0.0 | 0.00 | 0.03 | 0.00 | 40 | 1018.2 |
| 20260831193527 | 80 | 0 | 0.0 | 0.0 | 0.00 | 0.03 | 0.00 | 39 | 1018.3 |
| 20260831193049 | 80 | 0 | 0.0 | 0.0 | 0.00 | 0.03 | 0.00 | 36 | 1018.4 |
| 20260831192528 | 80 | 0 | 0.0 | 0.0 | 0.00 | 0.03 | 0.00 | 41 | 1018.4 |
| 20260831192026 | 80 | 0 | 0.0 | 0.0 | 0.00 | 0.03 | 0.00 | 44 | 1018.4 |
| 20260831191555 | 80 | 0 | 0.0 | 0.0 | 0.00 | 0.03 | 0.00 | 39 | 1018.3 |
| 20260831191028 | 80 | 0 | 0.0 | 0.0 | 0.00 | 0.03 | 0.00 | 42 | 1018.4 |
| 20260831190525 | 80 | 0 | 0.0 | 0.0 | 0.00 | 0.03 | 0.00 | 37 | 1018.4 |
| 20260831190047 | 79 | 0 | 0.0 | 0.0 | 0.00 | 0.03 | 0.00 | 42 | 1018.3 |
| 20260831185525 | 79 | 0 | 0.0 | 0.0 | 0.00 | 0.03 | 0.00 | 41 | 1018.4 |
| 20260831185031 | 78 | 0 | 0.0 | 0.0 | 0.00 | 0.03 | 0.00 | 41 | 1018.4 |
| 20260831184543 | 78 | 0 | 0.0 | 0.0 | 0.00 | 0.03 | 0.00 | 43 | 1018.6 |
| 20260831184033 | 78 | 0 | 0.0 | 0.0 | 0.00 | 0.03 | 0.00 | 42 | 1018.5 |
| 20260831183529 | 77 | 0 | 0.0 | 0.0 | 0.00 | 0.03 | 0.00 | 40 | 1018.6 |
| 20260831183047 | 78 | 0 | 0.0 | 1.0 | 0.00 | 0.03 | 0.00 | 43 | 1018.6 |
| 20260831182527 | 77 | 0 | 0.0 | 1.0 | 0.00 | 0.03 | 0.00 | 40 | 1018.6 |
| 20260831182030 | 78 | 0 | 0.0 | 0.0 | 0.00 | 0.03 | 0.00 | 39 | 1018.6 |
| 20260831181552 | 78 | 0 | 0.0 | 0.0 | 0.00 | 0.03 | 0.00 | 41 | 1018.7 |
| 20260831181025 | 78 | 0 | 0.0 | 0.0 | 0.00 | 0.03 | 0.00 | 40 | 1018.7 |
| 20260831180528 | 77 | 0 | 0.0 | 0.0 | 0.00 | 0.03 | 0.00 | 47 | 1018.8 |
| 20260831180042 | 77 | 0 | 0.0 | 0.0 | 0.00 | 0.03 | 0.00 | 44 | 1018.9 |
| 20260831175528 | 77 | 0 | 0.0 | 0.0 | 0.00 | 0.03 | 0.00 | 42 | 1019.1 |
| 20260831175029 | 77 | 0 | 0.0 | 0.0 | 0.00 | 0.03 | 0.00 | 47 | 1019.1 |
| 20260831174557 | 76 | 0 | 0.0 | 0.0 | 0.00 | 0.03 | 0.00 | 45 | 1019.1 |
| 20260831174027 | 76 | 0 | 0.0 | 0.0 | 0.00 | 0.03 | 0.00 | 42 | 1019.3 |
| 20260831173527 | 76 | 0 | 0.0 | 0.0 | 0.00 | 0.03 | 0.00 | 44 | 1019.3 |
| 20260831173101 | 75 | 0 | 0.0 | 0.0 | 0.00 | 0.03 | 0.00 | 44 | 1019.4 |
| 20260831172528 | 75 | 0 | 0.0 | 0.0 | 0.00 | 0.03 | 0.00 | 48 | 1019.4 |
| 20260831172029 | 74 | 0 | 0.0 | 0.0 | 0.00 | 0.03 | 0.00 | 49 | 1019.4 |
| 20260831171542 | 74 | 0 | 0.0 | 0.0 | 0.00 | 0.03 | 0.00 | 44 | 1019.5 |
| 20260831171024 | 74 | 0 | 0.0 | 0.0 | 0.00 | 0.03 | 0.00 | 47 | 1019.5 |
| 20260831170525 | 73 | 0 | 0.0 | 0.0 | 0.00 | 0.03 | 0.00 | 48 | 1019.5 |
| 20260831170045 | 72 | 0 | 0.0 | 0.0 | 0.00 | 0.03 | 0.00 | 51 | 1019.6 |
| 20260831165528 | 72 | 0 | 0.0 | 3.0 | 0.00 | 0.03 | 0.00 | 52 | 1019.6 |
| 20260831165026 | 71 | 0 | 0.0 | 3.0 | 0.00 | 0.03 | 0.00 | 51 | 1019.6 |
| 20260831164604 | 71 | 0 | 0.0 | 0.0 | 0.00 | 0.03 | 0.00 | 54 | 1019.7 |
| 20260831164028 | 70 | 0 | 0.0 | 1.0 | 0.00 | 0.03 | 0.00 | 56 | 1019.8 |
| 20260831163527 | 70 | 0 | 0.0 | 1.0 | 0.00 | 0.03 | 0.00 | 54 | 1020.0 |
| 20260831163043 | 69 | 0 | 0.0 | 1.0 | 0.00 | 0.03 | 0.00 | 52 | 1020.0 |
| 20260831162528 | 69 | 0 | 0.0 | 0.0 | 0.00 | 0.03 | 0.00 | 54 | 1020.1 |
| 20260831162029 | 68 | 0 | 0.0 | 0.0 | 0.00 | 0.03 | 0.00 | 51 | 1020.1 |
| 20260831161550 | 68 | 0 | 0.0 | 0.0 | 0.00 | 0.03 | 0.00 | 56 | 1020.2 |
| 20260831161024 | 68 | 0 | 0.0 | 0.0 | 0.00 | 0.03 | 0.00 | 55 | 1020.2 |
| 20260831160527 | 68 | 0 | 0.0 | 0.0 | 0.00 | 0.03 | 0.00 | 55 | 1020.2 |
| 20260831160049 | 68 | 0 | 0.0 | 0.0 | 0.00 | 0.03 | 0.00 | 57 | 1020.3 |
| 20260831155525 | 68 | 0 | 0.0 | 0.0 | 0.00 | 0.03 | 0.00 | 55 | 1020.3 |
| 20260831155033 | 67 | 0 | 0.0 | 0.0 | 0.00 | 0.03 | 0.00 | 60 | 1020.4 |
| 20260831154607 | 67 | 0 | 0.0 | 0.0 | 0.00 | 0.03 | 0.00 | 60 | 1020.5 |
| 20260831154030 | 67 | 0 | 0.0 | 0.0 | 0.00 | 0.03 | 0.00 | 59 | 1020.5 |
| 20260831153524 | 67 | 0 | 0.0 | 0.0 | 0.00 | 0.03 | 0.00 | 56 | 1020.5 |
| 20260831153050 | 66 | 0 | 0.0 | 0.0 | 0.00 | 0.03 | 0.00 | 57 | 1020.4 |
| 20260831152525 | 66 | 0 | 0.0 | 0.0 | 0.00 | 0.03 | 0.00 | 56 | 1020.4 |
| 20260831152029 | 65 | 0 | 0.0 | 0.0 | 0.00 | 0.03 | 0.00 | 58 | 1020.5 |
| 20260831151549 | 65 | 0 | 0.0 | 0.0 | 0.00 | 0.03 | 0.00 | 63 | 1020.5 |
| 20260831151026 | 65 | 0 | 0.0 | 0.0 | 0.00 | 0.03 | 0.00 | 66 | 1020.5 |
| 20260831150526 | 65 | 0 | 0.0 | 0.0 | 0.00 | 0.03 | 0.00 | 62 | 1020.5 |
| 20260831150044 | 64 | 0 | 0.0 | 1.0 | 0.00 | 0.03 | 0.00 | 60 | 1020.6 |
| 20260831145526 | 64 | 0 | 0.0 | 1.0 | 0.00 | 0.03 | 0.00 | 63 | 1020.6 |
| 20260831145033 | 64 | 0 | 0.0 | 1.0 | 0.00 | 0.03 | 0.00 | 66 | 1020.7 |
| 20260831144553 | 63 | 0 | 0.0 | 0.0 | 0.00 | 0.03 | 0.00 | 67 | 1020.8 |
| 20260831144030 | 63 | 0 | 0.0 | 0.0 | 0.00 | 0.03 | 0.00 | 71 | 1020.8 |
| 20260831143527 | 63 | 0 | 0.0 | 0.0 | 0.00 | 0.03 | 0.00 | 73 | 1020.8 |
| 20260831143056 | 63 | 0 | 0.0 | 0.0 | 0.00 | 0.03 | 0.00 | 69 | 1020.8 |
| 20260831142525 | 62 | 0 | 0.0 | 0.0 | 0.00 | 0.03 | 0.00 | 76 | 1020.8 |
| 20260831142026 | 62 | 0 | 0.0 | 0.0 | 0.00 | 0.03 | 0.00 | 79 | 1020.8 |
| 20260831141557 | 61 | 0 | 0.0 | 0.0 | 0.00 | 0.03 | 0.00 | 77 | 1020.8 |
| 20260831141025 | 61 | 0 | 0.0 | 0.0 | 0.00 | 0.03 | 0.00 | 80 | 1020.9 |
| 20260831140528 | 60 | 0 | 0.0 | 0.0 | 0.00 | 0.03 | 0.00 | 81 | 1020.9 |
| 20260831140043 | 60 | 0 | 0.0 | 0.0 | 0.00 | 0.03 | 0.00 | 86 | 1021.0 |
| 20260831135524 | 59 | 0 | 0.0 | 0.0 | 0.00 | 0.03 | 0.00 | 85 | 1020.9 |
| 20260831135028 | 59 | 0 | 0.0 | 0.0 | 0.00 | 0.03 | 0.00 | 88 | 1020.9 |
| 20260831134552 | 58 | 0 | 0.0 | 0.0 | 0.00 | 0.03 | 0.00 | 90 | 1020.8 |
| 20260831134024 | 58 | 0 | 0.0 | 0.0 | 0.00 | 0.03 | 0.00 | 91 | 1020.8 |
| 20260831133524 | 58 | 0 | 0.0 | 0.0 | 0.00 | 0.03 | 0.00 | 94 | 1020.7 |
| 20260831133052 | 58 | 0 | 0.0 | 0.0 | 0.00 | 0.03 | 0.00 | 94 | 1020.7 |
| 20260831132527 | 57 | 0 | 0.0 | 0.0 | 0.00 | 0.03 | 0.00 | 95 | 1020.7 |
| 20260831132027 | 57 | 0 | 0.0 | 0.0 | 0.00 | 0.03 | 0.00 | 95 | 1020.7 |
| 20260831131547 | 57 | 0 | 0.0 | 0.0 | 0.00 | 0.03 | 0.00 | 95 | 1020.6 |
| 20260831131026 | 57 | 0 | 0.0 | 0.0 | 0.00 | 0.03 | 0.00 | 96 | 1020.6 |
| 20260831130526 | 57 | 0 | 0.0 | 0.0 | 0.00 | 0.03 | 0.00 | 96 | 1020.7 |
| 20260831130046 | 56 | 0 | 0.0 | 0.0 | 0.00 | 0.03 | 0.00 | 96 | 1020.6 |
| 20260831125526 | 56 | 0 | 0.0 | 0.0 | 0.00 | 0.03 | 0.00 | 96 | 1020.5 |
| 20260831125026 | 56 | 0 | 0.0 | 0.0 | 0.00 | 0.03 | 0.00 | 96 | 1020.5 |
| 20260831124556 | 56 | 0 | 0.0 | 0.0 | 0.00 | 0.03 | 0.00 | 96 | 1020.4 |
| 20260831124024 | 55 | 0 | 0.0 | 0.0 | 0.00 | 0.03 | 0.00 | 96 | 1020.4 |
| 20260831123528 | 55 | 0 | 0.0 | 0.0 | 0.00 | 0.03 | 0.00 | 96 | 1020.4 |
| 20260831123051 | 55 | 0 | 0.0 | 0.0 | 0.00 | 0.03 | 0.00 | 96 | 1020.4 |
| 20260831122529 | 54 | 0 | 0.0 | 0.0 | 0.00 | 0.03 | 0.00 | 96 | 1020.4 |
| 20260831122027 | 54 | 0 | 0.0 | 0.0 | 0.00 | 0.03 | 0.00 | 96 | 1020.5 |
| 20260831121545 | 53 | 0 | 0.0 | 0.0 | 0.00 | 0.03 | 0.00 | 96 | 1020.4 |
| 20260831121026 | 53 | 0 | 0.0 | 0.0 | 0.00 | 0.03 | 0.00 | 96 | 1020.3 |
| 20260831120528 | 53 | 0 | 0.0 | 0.0 | 0.00 | 0.03 | 0.00 | 96 | 1020.4 |
| 20260831120048 | 53 | 0 | 0.0 | 0.0 | 0.00 | 0.03 | 0.00 | 96 | 1020.4 |
| 20260831115526 | 53 | 0 | 0.0 | 0.0 | 0.00 | 0.03 | 0.00 | 96 | 1020.5 |
| 20260831115024 | 52 | 0 | 0.0 | 0.0 | 0.00 | 0.03 | 0.00 | 96 | 1020.4 |
| 20260831114551 | 52 | 0 | 0.0 | 0.0 | 0.00 | 0.03 | 0.00 | 96 | 1020.4 |
| 20260831114027 | 52 | 0 | 0.0 | 0.0 | 0.00 | 0.03 | 0.00 | 96 | 1020.4 |
| 20260831113524 | 51 | 0 | 0.0 | 0.0 | 0.00 | 0.03 | 0.00 | 96 | 1020.4 |
| 20260831113049 | 51 | 0 | 0.0 | 0.0 | 0.00 | 0.03 | 0.00 | 96 | 1020.5 |
| 20260831112525 | 51 | 0 | 0.0 | 0.0 | 0.00 | 0.03 | 0.00 | 96 | 1020.6 |
| 20260831112024 | 51 | 0 | 0.0 | 0.0 | 0.00 | 0.03 | 0.00 | 95 | 1020.5 |
| 20260831111545 | 51 | 0 | 0.0 | 0.0 | 0.00 | 0.03 | 0.00 | 96 | 1020.4 |
| 20260831111028 | 51 | 0 | 0.0 | 0.0 | 0.00 | 0.03 | 0.00 | 95 | 1020.2 |
| 20260831110525 | 50 | 0 | 0.0 | 0.0 | 0.00 | 0.03 | 0.00 | 95 | 1020.2 |
| 20260831110052 | 50 | 0 | 0.0 | 0.0 | 0.00 | 0.03 | 0.00 | 95 | 1020.2 |
| 20260831105526 | 50 | 0 | 0.0 | 0.0 | 0.00 | 0.03 | 0.00 | 95 | 1020.2 |
| 20260831105025 | 50 | 0 | 0.0 | 0.0 | 0.00 | 0.03 | 0.00 | 95 | 1020.2 |
| 20260831104549 | 50 | 0 | 0.0 | 0.0 | 0.00 | 0.03 | 0.00 | 95 | 1020.2 |
| 20260831104027 | 50 | 0 | 0.0 | 0.0 | 0.00 | 0.03 | 0.00 | 95 | 1020.1 |
| 20260831103523 | 50 | 0 | 0.0 | 0.0 | 0.00 | 0.03 | 0.00 | 95 | 1020.0 |
| 20260831103044 | 50 | 0 | 0.0 | 0.0 | 0.00 | 0.03 | 0.00 | 95 | 1019.9 |
| 20260831102529 | 50 | 0 | 0.0 | 0.0 | 0.00 | 0.03 | 0.00 | 95 | 1019.9 |
| 20260831102025 | 50 | 0 | 0.0 | 0.0 | 0.00 | 0.03 | 0.00 | 95 | 1019.8 |
| 20260831101557 | 50 | 0 | 0.0 | 0.0 | 0.00 | 0.03 | 0.00 | 95 | 1019.9 |
| 20260831101024 | 51 | 0 | 0.0 | 0.0 | 0.00 | 0.03 | 0.00 | 95 | 1019.9 |
| 20260831100525 | 51 | 0 | 0.0 | 0.0 | 0.00 | 0.03 | 0.00 | 95 | 1019.8 |
| 20260831100047 | 51 | 0 | 0.0 | 0.0 | 0.00 | 0.03 | 0.00 | 95 | 1019.8 |
| 20260831095526 | 51 | 0 | 0.0 | 0.0 | 0.00 | 0.03 | 0.00 | 95 | 1019.7 |
| 20260831095026 | 51 | 0 | 0.0 | 0.0 | 0.00 | 0.03 | 0.00 | 95 | 1019.6 |
| 20260831094605 | 51 | 0 | 0.0 | 0.0 | 0.00 | 0.03 | 0.00 | 95 | 1019.5 |
| 20260831094025 | 51 | 0 | 0.0 | 0.0 | 0.00 | 0.03 | 0.00 | 95 | 1019.5 |
| 20260831093533 | 51 | 0 | 0.0 | 0.0 | 0.00 | 0.03 | 0.00 | 95 | 1019.4 |
| 20260831093050 | 51 | 0 | 0.0 | 0.0 | 0.00 | 0.03 | 0.00 | 95 | 1019.3 |
| 20260831092523 | 52 | 0 | 0.0 | 0.0 | 0.00 | 0.03 | 0.00 | 95 | 1019.3 |
| 20260831092027 | 52 | 0 | 0.0 | 0.0 | 0.00 | 0.03 | 0.00 | 95 | 1019.3 |
| 20260831091542 | 52 | 0 | 0.0 | 0.0 | 0.00 | 0.03 | 0.00 | 95 | 1019.1 |
| 20260831091028 | 52 | 0 | 0.0 | 0.0 | 0.00 | 0.03 | 0.00 | 95 | 1019.0 |
| 20260831090525 | 52 | 0 | 0.0 | 0.0 | 0.00 | 0.03 | 0.00 | 95 | 1019.0 |
| 20260831090059 | 52 | 0 | 0.0 | 0.0 | 0.00 | 0.03 | 0.00 | 95 | 1019.0 |
| 20260831085526 | 52 | 0 | 0.0 | 0.0 | 0.00 | 0.03 | 0.00 | 95 | 1018.9 |
| 20260831085026 | 53 | 0 | 0.0 | 0.0 | 0.00 | 0.03 | 0.00 | 95 | 1018.7 |
| 20260831084543 | 53 | 0 | 0.0 | 0.0 | 0.00 | 0.03 | 0.00 | 95 | 1018.6 |
| 20260831084026 | 53 | 0 | 0.0 | 0.0 | 0.00 | 0.03 | 0.00 | 95 | 1018.7 |
| 20260831083526 | 53 | 0 | 0.0 | 0.0 | 0.00 | 0.03 | 0.00 | 95 | 1018.6 |
| 20260831083050 | 53 | 0 | 0.0 | 0.0 | 0.00 | 0.03 | 0.00 | 95 | 1018.6 |
| 20260831082526 | 53 | 0 | 0.0 | 0.0 | 0.00 | 0.03 | 0.00 | 95 | 1018.6 |
| 20260831082025 | 53 | 0 | 0.0 | 0.0 | 0.00 | 0.03 | 0.00 | 95 | 1018.5 |
| 20260831081559 | 53 | 0 | 0.0 | 0.0 | 0.00 | 0.03 | 0.00 | 95 | 1018.5 |
| 20260831081026 | 53 | 0 | 0.0 | 0.0 | 0.00 | 0.03 | 0.00 | 95 | 1018.4 |
| 20260831080526 | 54 | 0 | 0.0 | 0.0 | 0.00 | 0.03 | 0.00 | 95 | 1018.4 |
| 20260831080052 | 54 | 0 | 0.0 | 0.0 | 0.00 | 0.03 | 0.00 | 95 | 1018.3 |
| 20260831075525 | 54 | 0 | 0.0 | 0.0 | 0.00 | 0.03 | 0.00 | 95 | 1018.3 |
| 20260831075026 | 54 | 0 | 0.0 | 0.0 | 0.00 | 0.03 | 0.00 | 95 | 1018.4 |
| 20260831074546 | 54 | 0 | 0.0 | 0.0 | 0.00 | 0.03 | 0.00 | 95 | 1018.5 |
| 20260831074027 | 54 | 0 | 0.0 | 0.0 | 0.00 | 0.03 | 0.00 | 95 | 1018.4 |
| 20260831073524 | 54 | 0 | 0.0 | 0.0 | 0.00 | 0.03 | 0.00 | 95 | 1018.4 |
| 20260831073055 | 54 | 0 | 0.0 | 0.0 | 0.00 | 0.03 | 0.00 | 95 | 1018.3 |
| 20260831072528 | 55 | 0 | 0.0 | 0.0 | 0.00 | 0.03 | 0.00 | 95 | 1018.3 |
| 20260831072024 | 55 | 0 | 0.0 | 0.0 | 0.00 | 0.03 | 0.00 | 95 | 1018.4 |
| 20260831071542 | 55 | 0 | 0.0 | 0.0 | 0.00 | 0.03 | 0.00 | 95 | 1018.4 |
| 20260831071024 | 55 | 0 | 0.0 | 0.0 | 0.00 | 0.03 | 0.00 | 95 | 1018.3 |
| 20260831070525 | 55 | 0 | 0.0 | 0.0 | 0.00 | 0.03 | 0.00 | 95 | 1018.3 |
| 20260831070053 | 55 | 0 | 0.0 | 0.0 | 0.00 | 0.03 | 0.00 | 95 | 1018.4 |
| 20260831065528 | 55 | 0 | 0.0 | 0.0 | 0.00 | 0.03 | 0.00 | 95 | 1018.4 |
| 20260831065027 | 55 | 0 | 0.0 | 0.0 | 0.00 | 0.03 | 0.00 | 95 | 1018.4 |
| 20260831064543 | 55 | 0 | 0.0 | 0.0 | 0.00 | 0.03 | 0.00 | 95 | 1018.3 |
| 20260831064024 | 55 | 0 | 0.0 | 0.0 | 0.00 | 0.03 | 0.00 | 95 | 1018.4 |
| 20260831063526 | 56 | 0 | 0.0 | 0.0 | 0.00 | 0.03 | 0.00 | 95 | 1018.4 |
| 20260831063042 | 56 | 0 | 0.0 | 0.0 | 0.00 | 0.03 | 0.00 | 95 | 1018.3 |
| 20260831062525 | 56 | 0 | 0.0 | 0.0 | 0.00 | 0.03 | 0.00 | 95 | 1018.2 |
| 20260831062025 | 56 | 0 | 0.0 | 0.0 | 0.00 | 0.03 | 0.00 | 95 | 1018.1 |
| 20260831061549 | 56 | 0 | 0.0 | 0.0 | 0.00 | 0.03 | 0.00 | 95 | 1018.0 |
| 20260831061025 | 56 | 0 | 0.0 | 0.0 | 0.00 | 0.03 | 0.00 | 95 | 1017.9 |
| 20260831060530 | 56 | 0 | 0.0 | 0.0 | 0.00 | 0.03 | 0.00 | 94 | 1017.9 |
| 20260831060051 | 56 | 0 | 0.0 | 0.0 | 0.00 | 0.03 | 0.00 | 94 | 1017.8 |
| 20260831055525 | 56 | 0 | 0.0 | 0.0 | 0.00 | 0.03 | 0.00 | 95 | 1017.7 |
| 20260831055029 | 56 | 0 | 0.0 | 0.0 | 0.00 | 0.03 | 0.00 | 95 | 1017.8 |
| 20260831054544 | 56 | 0 | 0.0 | 0.0 | 0.00 | 0.03 | 0.00 | 95 | 1017.8 |
| 20260831054023 | 56 | 0 | 0.0 | 0.0 | 0.00 | 0.03 | 0.00 | 95 | 1017.7 |
| 20260831053528 | 57 | 0 | 0.0 | 0.0 | 0.00 | 0.03 | 0.00 | 95 | 1017.7 |
| 20260831053048 | 57 | 0 | 0.0 | 0.0 | 0.00 | 0.03 | 0.00 | 94 | 1017.5 |
| 20260831052526 | 57 | 0 | 0.0 | 0.0 | 0.00 | 0.03 | 0.00 | 94 | 1017.6 |
| 20260831052027 | 57 | 0 | 0.0 | 0.0 | 0.00 | 0.03 | 0.00 | 95 | 1017.7 |
| 20260831051544 | 57 | 0 | 0.0 | 0.0 | 0.00 | 0.03 | 0.00 | 94 | 1017.7 |
| 20260831051025 | 57 | 0 | 0.0 | 0.0 | 0.00 | 0.03 | 0.00 | 94 | 1017.7 |
| 20260831050525 | 57 | 0 | 0.0 | 0.0 | 0.00 | 0.03 | 0.00 | 94 | 1017.5 |
| 20260831050101 | 57 | 0 | 0.0 | 0.0 | 0.00 | 0.03 | 0.00 | 94 | 1017.5 |
| 20260831045524 | 57 | 0 | 0.0 | 0.0 | 0.00 | 0.03 | 0.00 | 94 | 1017.5 |
| 20260831045025 | 57 | 0 | 0.0 | 0.0 | 0.00 | 0.03 | 0.00 | 94 | 1017.3 |
| 20260831044614 | 57 | 0 | 0.0 | 0.0 | 0.00 | 0.03 | 0.00 | 94 | 1017.4 |
| 20260831044025 | 57 | 0 | 0.0 | 0.0 | 0.00 | 0.03 | 0.00 | 94 | 1017.2 |
| 20260831043525 | 58 | 0 | 0.0 | 0.0 | 0.00 | 0.03 | 0.00 | 94 | 1017.2 |
| 20260831043047 | 58 | 0 | 0.0 | 0.0 | 0.00 | 0.03 | 0.00 | 94 | 1017.3 |
| 20260831042525 | 58 | 0 | 0.0 | 0.0 | 0.00 | 0.03 | 0.00 | 93 | 1017.2 |
| 20260831042025 | 58 | 0 | 0.0 | 0.0 | 0.00 | 0.03 | 0.00 | 94 | 1017.2 |
| 20260831041541 | 58 | 0 | 0.0 | 0.0 | 0.00 | 0.03 | 0.00 | 94 | 1017.2 |
| 20260831041026 | 58 | 0 | 0.0 | 0.0 | 0.00 | 0.03 | 0.00 | 93 | 1017.2 |
| 20260831040526 | 59 | 0 | 0.0 | 0.0 | 0.00 | 0.03 | 0.00 | 94 | 1017.2 |
| 20260831040043 | 59 | 0 | 0.0 | 0.0 | 0.00 | 0.03 | 0.00 | 94 | 1017.2 |
| 20260831035525 | 59 | 0 | 0.0 | 0.0 | 0.00 | 0.03 | 0.03 | 93 | 1017.0 |
| 20260831035026 | 59 | 0 | 0.0 | 0.0 | 0.00 | 0.03 | 0.03 | 93 | 1017.0 |
| 20260831034545 | 59 | 0 | 0.0 | 0.0 | 0.00 | 0.03 | 0.03 | 94 | 1017.1 |
| 20260831034026 | 59 | 0 | 0.0 | 0.0 | 0.00 | 0.03 | 0.03 | 94 | 1017.1 |
| 20260831033525 | 60 | 0 | 0.0 | 0.0 | 0.00 | 0.03 | 0.03 | 93 | 1017.2 |
| 20260831033041 | 60 | 0 | 0.0 | 0.0 | 0.00 | 0.03 | 0.03 | 94 | 1017.2 |
| 20260831032527 | 60 | 0 | 0.0 | 0.0 | 0.00 | 0.03 | 0.03 | 94 | 1017.2 |
| 20260831032024 | 60 | 0 | 0.0 | 0.0 | 0.00 | 0.03 | 0.03 | 94 | 1017.1 |
| 20260831031547 | 60 | 0 | 0.0 | 0.0 | 0.00 | 0.03 | 0.03 | 94 | 1017.2 |
| 20260831031024 | 60 | 0 | 0.0 | 0.0 | 0.00 | 0.03 | 0.03 | 93 | 1017.2 |
| 20260831030526 | 60 | 0 | 0.0 | 0.0 | 0.01 | 0.03 | 0.03 | 93 | 1017.2 |
| 20260831030043 | 60 | 0 | 0.0 | 0.0 | 0.01 | 0.03 | 0.03 | 93 | 1017.1 |
| 20260831025525 | 60 | 0 | 0.0 | 0.0 | 0.01 | 0.03 | 0.03 | 93 | 1017.1 |
| 20260831025027 | 60 | 0 | 0.0 | 0.0 | 0.01 | 0.03 | 0.03 | 93 | 1017.1 |
| 20260831024610 | 60 | 0 | 0.0 | 0.0 | 0.01 | 0.03 | 0.03 | 93 | 1016.9 |
| 20260831024024 | 60 | 0 | 0.0 | 0.0 | 0.02 | 0.03 | 0.03 | 93 | 1017.0 |
| 20260831023524 | 61 | 0 | 0.0 | 0.0 | 0.02 | 0.03 | 0.03 | 93 | 1016.9 |
| 20260831023045 | 61 | 0 | 0.0 | 0.0 | 0.03 | 0.03 | 0.03 | 93 | 1017.1 |
| 20260831022524 | 61 | 0 | 0.0 | 0.0 | 0.03 | 0.03 | 0.03 | 92 | 1017.0 |
| 20260831022024 | 61 | 0 | 0.0 | 0.0 | 0.03 | 0.03 | 0.03 | 92 | 1017.0 |
| 20260831021544 | 61 | 0 | 0.0 | 0.0 | 0.03 | 0.03 | 0.03 | 91 | 1017.1 |
| 20260831021024 | 61 | 0 | 0.0 | 0.0 | 0.03 | 0.03 | 0.03 | 91 | 1017.2 |
| 20260831020525 | 62 | 0 | 0.0 | 0.0 | 0.02 | 0.02 | 0.02 | 91 | 1017.2 |
| 20260831015524 | 63 | 0 | 0.0 | 5.0 | 0.02 | 0.02 | 0.02 | 89 | 1017.6 |
| 20260831015023 | 63 | 0 | 0.0 | 5.0 | 0.02 | 0.02 | 0.02 | 89 | 1017.7 |